Weather History for KEVV - December, 2013

Change the Weather History Date:

Tuesday, December 3, 2013

  Actual Average Record
Temperature  
Mean Temperature 49 °F 39 °F  
Max Temperature 59 °F 48 °F 76 °F (1982)
Min Temperature 39 °F 30 °F 4 °F (1929)
Degree Days  
Heating Degree Days 16 26  
Month to date heating degree days 55 77  
Since 1 July heating degree days 969 938  
Cooling Degree Days 0 0  
Month to date cooling degree days 0 0  
Year to date cooling degree days 1464 1397  
Growing Degree Days 2 (Base 50)    
Moisture  
Dew Point 45 °F    
Average Humidity 84    
Maximum Humidity 100    
Minimum Humidity 67    
Precipitation  
Precipitation 0.00 in 0.13 in 2.25 in (1982)
Month to date precipitation 0.00 0.39  
Year to date precipitation 46.25 41.94  
Snow  
Snow 0.00 in 0.00 in 0.60 in (1957)
Month to date snowfall 0.0 0.1  
Since 1 July snowfall T 0.4  
Snow Depth 0.00 in    
Sea Level Pressure  
Sea Level Pressure 29.77 in    
Wind  
Wind Speed 4 mph (ESE)    
Max Wind Speed 10 mph    
Max Gust Speed 14 mph    
Visibility 3 miles    
Events Fog    
T = Trace of Precipitation, MM = Missing Value Source: NWS Daily Summary

Daily Weather History Graph

Daily Weather History Graph

Search for Another Location

Airport or City:

Trip Planner

Search our weather history database for the weather conditions in past years. The results will help you decide how hot, cold, wet, or windy it might be!

Date:

Astronomy

Dec. 03, 2013 Rise Set
Actual Time 6:49 AM CST 4:30 PM CST
Civil Twilight 6:20 AM CST 4:59 PM CST
Nautical Twilight 5:47 AM CST 5:32 PM CST
Astronomical Twilight 5:15 AM CST 6:04 PM CST
Moon 7:18 AM CST (12/3) 5:33 PM CST (12/3)
Length of Visible Light 10h 39m
Length of Day
9h 40m
New Moon, 1% of the Moon is Illuminated
Dec 3
New Moon
Dec 9
First Quarter
Dec 17
Full
Dec 25
Last Quarter
Jan 1
New

Hourly Weather History & Observations

Time (CST) Temp. Windchill Dew Point Humidity Pressure Visibility Wind Dir Wind Speed Gust Speed Precip Events Conditions
12:54 AM 41.0 °F - 39.0 °F 93% 29.76 in 4.0 mi Calm Calm - N/A   Clear
1:50 AM 42.8 °F - 39.2 °F 87% 29.76 in 2.5 mi Calm Calm - N/A   Clear
1:54 AM 41.0 °F 39.0 °F 39.0 °F 93% 29.76 in 3.0 mi ENE 3.5 mph - N/A   Clear
2:08 AM 42.8 °F - 39.2 °F 87% 29.77 in 2.0 mi Calm Calm - N/A   Clear
2:15 AM 41.0 °F - 39.2 °F 93% 29.77 in 1.5 mi Calm Calm - N/A   Clear
2:40 AM 39.2 °F - 37.4 °F 93% 29.77 in 1.2 mi Calm Calm - N/A   Partly Cloudy
2:54 AM 39.9 °F - 37.9 °F 93% 29.77 in 1.0 mi Calm Calm - N/A   Partly Cloudy
3:02 AM 39.2 °F - 37.4 °F 93% 29.77 in 0.5 mi Calm Calm - N/A Fog Fog
3:16 AM 42.8 °F - 39.2 °F 87% 29.76 in 1.0 mi Calm Calm - N/A   Mostly Cloudy
3:40 AM 42.8 °F - 41.0 °F 93% 29.77 in 1.8 mi Calm Calm - N/A   Overcast
3:51 AM 42.8 °F - 41.0 °F 93% 29.77 in 2.0 mi Calm Calm - N/A   Mostly Cloudy
3:54 AM 43.0 °F 41.3 °F 41.0 °F 93% 29.77 in 1.8 mi NE 3.5 mph - N/A   Mostly Cloudy
4:00 AM 41.0 °F 39.0 °F 39.2 °F 93% 29.77 in 0.8 mi NNE 3.5 mph - N/A   Mostly Cloudy
4:37 AM 41.0 °F 39.0 °F 39.2 °F 93% 29.76 in 1.5 mi NE 3.5 mph - N/A   Overcast
4:43 AM 41.0 °F 39.0 °F 39.2 °F 93% 29.76 in 2.0 mi NE 3.5 mph - N/A   Overcast
4:50 AM 41.0 °F 39.0 °F 39.2 °F 93% 29.77 in 1.2 mi NE 3.5 mph - N/A   Overcast
4:54 AM 42.1 °F - 39.0 °F 89% 29.77 in 0.8 mi Calm Calm - N/A   Overcast
5:06 AM 42.8 °F - 39.2 °F 87% 29.76 in 0.8 mi Calm Calm - N/A   Mist
5:15 AM 42.8 °F - 41.0 °F 93% 29.76 in 1.2 mi Calm Calm - N/A   Overcast
5:54 AM 44.1 °F - 43.0 °F 96% 29.77 in 1.5 mi Calm Calm - N/A   Overcast
6:22 AM 46.4 °F - 44.6 °F 93% 29.77 in 2.0 mi Calm Calm - N/A   Overcast
6:42 AM 46.4 °F - 44.6 °F 93% 29.78 in 1.2 mi Calm Calm - N/A   Overcast
6:51 AM 46.4 °F - 44.6 °F 93% 29.78 in 0.2 mi Calm Calm - N/A Fog Fog
6:54 AM 46.0 °F - 44.1 °F 93% 29.78 in 0.2 mi Calm Calm - N/A Fog Fog
7:30 AM 46.4 °F - 44.6 °F 93% 29.78 in 0.2 mi Calm Calm - N/A Fog Fog
7:54 AM 46.9 °F - 45.0 °F 93% 29.80 in 0.2 mi Calm Calm - N/A Fog Fog
8:13 AM 48.2 °F - 46.4 °F 93% 29.80 in 0.2 mi Calm Calm - N/A Fog Fog
8:54 AM 48.9 °F - 48.0 °F 97% 29.82 in 0.2 mi Calm Calm - N/A Fog Fog
9:22 AM 50.0 °F - 48.2 °F 94% 29.81 in 0.5 mi SSE 3.5 mph - N/A Fog Fog
9:34 AM 51.8 °F - 48.2 °F 88% 29.81 in 1.2 mi SE 6.9 mph - N/A   Overcast
9:42 AM 51.8 °F - 50.0 °F 94% 29.81 in 2.0 mi SSE 5.8 mph - N/A   Overcast
9:54 AM 52.0 °F - 50.0 °F 93% 29.81 in 2.5 mi SE 5.8 mph - N/A   Mostly Cloudy
10:10 AM 51.8 °F - 50.0 °F 94% 29.79 in 1.5 mi SE 9.2 mph - N/A   Mostly Cloudy
10:54 AM 53.1 °F - 50.0 °F 89% 29.79 in 1.5 mi SSE 6.9 mph - N/A   Overcast
11:01 AM 53.6 °F - 50.0 °F 88% 29.78 in 2.5 mi SSE 8.1 mph - N/A   Overcast
11:11 AM 53.6 °F - 51.8 °F 94% 29.78 in 3.0 mi South 4.6 mph - N/A   Overcast
11:31 AM 55.4 °F - 51.8 °F 88% 29.77 in 4.0 mi SE 5.8 mph - N/A   Overcast
11:54 AM 55.9 °F - 50.0 °F 80% 29.77 in 5.0 mi SSE 5.8 mph - N/A   Haze
12:02 PM 55.4 °F - 50.0 °F 82% 29.76 in 5.0 mi SE 5.8 mph - N/A   Haze
12:49 PM 57.2 °F - 50.0 °F 77% 29.75 in 6.0 mi SE 4.6 mph - N/A   Haze
12:54 PM 57.9 °F - 50.0 °F 75% 29.75 in 6.0 mi SSE 8.1 mph - N/A   Haze
1:54 PM 57.9 °F - 48.0 °F 70% 29.75 in 9.0 mi South 6.9 mph - N/A   Overcast
2:49 PM 59.0 °F - 48.2 °F 67% 29.74 in 10.0 mi SSE 5.8 mph - N/A   Overcast
2:54 PM 59.0 °F - 48.0 °F 67% 29.75 in 10.0 mi SSE 4.6 mph - N/A   Overcast
3:54 PM 57.9 °F - 46.9 °F 67% 29.75 in 10.0 mi SSE 3.5 mph - N/A   Overcast
4:54 PM 57.0 °F - 46.9 °F 69% 29.74 in 10.0 mi East 4.6 mph - N/A   Overcast
5:54 PM 55.0 °F - 46.9 °F 74% 29.75 in 10.0 mi East 5.8 mph - N/A   Scattered Clouds
6:54 PM 54.0 °F - 46.9 °F 77% 29.75 in 10.0 mi ESE 4.6 mph - N/A   Clear
7:54 PM 53.1 °F - 46.9 °F 80% 29.76 in 10.0 mi SSE 4.6 mph - N/A   Clear
8:54 PM 53.1 °F - 48.0 °F 83% 29.77 in 7.0 mi SSE 6.9 mph - N/A   Clear
9:54 PM 53.1 °F - 48.9 °F 86% 29.76 in 6.0 mi SSE 5.8 mph - N/A   Clear
10:33 PM 44.6 °F 42.2 °F 42.8 °F 93% 29.77 in 2.0 mi NE 4.6 mph - N/A   Clear
10:50 PM 46.4 °F 45.2 °F 44.6 °F 93% 29.77 in 1.8 mi East 3.5 mph - N/A   Clear
10:54 PM 48.0 °F - 46.0 °F 93% 29.77 in 2.5 mi East 3.5 mph - N/A   Clear
11:03 PM 46.4 °F 45.2 °F 46.4 °F 100% 29.76 in 1.2 mi ENE 3.5 mph - N/A   Partly Cloudy
11:10 PM 48.2 °F - 46.4 °F 93% 29.76 in 0.5 mi East 3.5 mph - N/A Fog Fog
11:25 PM 46.4 °F - 44.6 °F 93% 29.77 in 0.5 mi Calm Calm - N/A Fog Fog
11:40 PM 48.2 °F - 46.4 °F 93% 29.76 in 1.0 mi Calm Calm - N/A   Scattered Clouds
11:48 PM 48.2 °F - 46.4 °F 93% 29.77 in 0.8 mi Calm Calm - N/A   Mist
11:54 PM 48.9 °F - 46.9 °F 93% 29.76 in 1.0 mi Calm Calm - N/A   Mostly Cloudy